Location: ????????
(37.9452°N, 23.1472°E)
Time: 12:45:15
(UTC+00:00)

Cosmos 2227 Rocket - Pass Details

Date: 18 April 2024
Orbit: 837 x 846 km, 71.0° (Epoch: 17 May)

Event Time Altitude Azimuth Distance (km) Brightness Sun altitude
Rises 20:05:21 0° 339° (NNW) 3,413 6.3 -30.8°
Reaches altitude 10° 20:07:50 10° 341° (NNW) 2,474 5.4 -31.1°
Enters shadow 20:12:12 53° 0° (N) 1,033 2.8 -31.6°
